Observations for Trim Patrick St
| Time | AQI | Temp °C | Hum % | Pres Pa | CO μg/m³ | H₂S μg/m³ | NO μg/m³ | NO₂ μg/m³ | O₃ μg/m³ | SO₂ μg/m³ | PM1 μg/m³ | PM2.5 μg/m³ | PM10 μg/m³ |
|---|---|---|---|---|---|---|---|---|---|---|---|---|---|
| Wednesday 26 August 2026 | |||||||||||||
| 16:09 | 2 | 31.6 | 44 | 69,288 | 0 | 0 | 2.48 | 14.51 | 144.24 | 13.67 | 5.43 | 11.45 | 12.59 |
| 16:07 | 2 | 31.6 | 44 | 69,294 | 0 | 0 | 2.55 | 7.16 | 70.29 | 13.15 | 6.29 | 13.04 | 14.34 |
| 16:04 | 2 | 31.8 | 44 | 69,278 | 0 | 0 | 2.79 | 7.66 | 84.15 | 14.6 | 5.43 | 11.49 | 12.63 |
| 16:03 | 2 | 31.8 | 45 | 69,276 | 0 | 0 | 2.92 | 2.03 | 73.17 | 14.04 | 4.57 | 11.4 | 12.54 |
| 16:02 | 2 | 31.9 | 43 | 69,267 | 0 | 0 | 2.63 | 9.32 | 87.29 | 14.5 | 5.43 | 11.53 | 12.68 |
| 16:01 | 2 | 31.9 | 42 | 69,294 | 0 | 0 | 2.52 | 4.58 | 76.83 | 13.93 | 2.86 | 9.23 | 10.15 |
| 16:00 | 2 | 31.9 | 48 | 69,328 | 0 | 0 | 3.2 | 0 | 65.24 | 14.31 | 4.57 | 10.36 | 11.39 |
| 15:59 | 2 | 31.8 | 47 | 69,314 | 0 | 0 | 3.01 | 4.95 | 74.33 | 14.3 | 6.29 | 11.97 | 13.16 |
| 15:58 | 2 | 31.7 | 48 | 69,312 | 0 | 0 | 3.14 | 2.93 | 66.99 | 14.63 | 6.29 | 11.91 | 13.1 |
| 15:57 | 2 | 31.5 | 47 | 69,286 | 0 | 0 | 3.04 | 15.64 | 94.44 | 11.79 | 5.43 | 11.24 | 12.37 |
| 15:56 | 2 | 31.4 | 47 | 69,334 | 0 | 0 | 3.13 | 5.65 | 74.42 | 12.41 | 5.43 | 11.97 | 13.16 |
| 15:55 | 2 | 31.3 | 47 | 69,345 | 0 | 0 | 3.11 | 0 | 62.84 | 13.9 | 6.29 | 12.77 | 14.04 |
| 15:54 | 2 | 31.2 | 47 | 69,391 | 0 | 0 | 2.82 | 15.49 | 80.18 | 11.96 | 5.43 | 12.02 | 13.22 |
| 15:53 | 2 | 31 | 52 | 69,353 | 0 | 0 | 3.41 | 4.41 | 67.59 | 13.73 | 6.29 | 11.56 | 12.72 |
| 15:52 | 2 | 30.9 | 47 | 69,363 | 0 | 0 | 2.62 | 10.73 | 73.93 | 11.99 | 5.43 | 10.45 | 11.5 |
| 15:51 | 2 | 30.9 | 48 | 69,375 | 0 | 0 | 2.85 | 3.29 | 69.54 | 13.33 | 7.14 | 12.69 | 13.96 |
| 15:50 | 2 | 30.8 | 49 | 69,420 | 0 | 0 | 2.71 | 13.43 | 91.69 | 12.21 | 4.57 | 9.55 | 10.51 |
| 15:49 | 2 | 30.8 | 50 | 69,448 | 0 | 0 | 2.88 | 5.81 | 68.31 | 12.01 | 5.43 | 11.76 | 12.93 |
| 15:48 | 2 | 30.7 | 46 | 69,483 | 0 | 0 | 2.42 | 4.56 | 73.08 | 11.99 | 7.14 | 14.43 | 15.87 |
| 15:47 | 2 | 30.6 | 47 | 69,573 | 0 | 0 | 2.55 | 4.42 | 69.36 | 12.07 | 5.43 | 11.23 | 12.35 |